Weather History for Honolulu, HI

Change the Weather History Date:

Monday, February 18, 2013

  Actual Average Record
Temperature  
Mean Temperature 75 °F 73 °F  
Max Temperature 81 °F 80 °F 84 °F (1974)
Min Temperature 69 °F 66 °F 57 °F (1986)
Degree Days  
Heating Degree Days 0 0  
Month to date heating degree days 0 0  
Since 1 July heating degree days 0 0  
Cooling Degree Days 10 8  
Month to date cooling degree days 179 144  
Year to date cooling degree days 398 398  
Growing Degree Days 25 (Base 50)    
Moisture  
Dew Point 57 °F    
Average Humidity 58    
Maximum Humidity 73    
Minimum Humidity 42    
Precipitation  
Precipitation T in 0.08 in 0.56 in (1995)
Month to date precipitation T 1.22  
Year to date precipitation 2.42 3.53  
Snow  
Snow 0.00 in - - ()
Month to date snowfall 0.0  
Since 1 July snowfall 0.0  
Snow Depth 0.00 in    
Sea Level Pressure  
Sea Level Pressure 30.12 in    
Wind  
Wind Speed 18 mph (ENE)    
Max Wind Speed 31 mph    
Max Gust Speed 43 mph    
Visibility 10 miles    
Events Rain    
T = Trace of Precipitation, MM = Missing Value Source: NWS Daily Summary

Daily Weather History Graph

Daily Weather History Graph

Search for Another Location

Airport:

Trip Planner

Search our weather history database for the weather conditions in past years. The results will help you decide how hot, cold, wet, or windy it might be!

Date:

Astronomy

Feb. 18, 2013 Rise Set
Actual Time 6:59 AM HST 6:31 PM HST
Civil Twilight 6:37 AM HST 6:54 PM HST
Nautical Twilight 6:11 AM HST 7:20 PM HST
Astronomical Twilight 5:45 AM HST 7:46 PM HST
Moon 12:46 PM HST (2/18) 1:29 AM HST (2/18)
Length of Visible Light 12h 16m
Length of Day
11h 31m
First Quarter, 60% of the Moon is Illuminated
Feb 18
First Quarter
Feb 25
Full
Mar 4
Last Quarter
Mar 11
New
Mar 19
First Quarter

Hourly Weather History & Observations

Time (HST) Temp. Heat Index Dew Point Humidity Pressure Visibility Wind Dir Wind Speed Gust Speed Precip Events Conditions
12:53 AM 72.0 °F - 60.1 °F 66% 30.14 in 10.0 mi ENE 25.3 mph 34.5 mph 0.00 in   Scattered Clouds
1:53 AM 71.1 °F - 60.1 °F 68% 30.13 in 10.0 mi ENE 19.6 mph 28.8 mph 0.00 in   Scattered Clouds
2:53 AM 70.0 °F - 61.0 °F 73% 30.12 in 10.0 mi NE 15.0 mph 25.3 mph 0.00 in Rain Light Rain
3:53 AM 71.1 °F - 59.0 °F 66% 30.12 in 10.0 mi NE 15.0 mph - 0.00 in   Scattered Clouds
4:53 AM 72.0 °F - 57.0 °F 59% 30.11 in 10.0 mi NE 15.0 mph 25.3 mph N/A   Scattered Clouds
5:53 AM 71.1 °F - 57.9 °F 63% 30.12 in 10.0 mi NE 13.8 mph 23.0 mph N/A   Partly Cloudy
6:53 AM 71.1 °F - 55.0 °F 57% 30.14 in 10.0 mi ENE 18.4 mph 26.5 mph N/A   Partly Cloudy
7:53 AM 72.0 °F - 55.9 °F 57% 30.14 in 10.0 mi NE 19.6 mph 28.8 mph N/A   Scattered Clouds
8:53 AM 73.9 °F - 57.9 °F 57% 30.15 in 10.0 mi NE 19.6 mph 33.4 mph N/A   Scattered Clouds
9:53 AM 75.9 °F - 59.0 °F 56% 30.15 in 10.0 mi NE 17.3 mph 31.1 mph 0.00 in   Mostly Cloudy
10:53 AM 77.0 °F - 55.9 °F 48% 30.15 in 10.0 mi ENE 24.2 mph 38.0 mph 0.00 in   Scattered Clouds
11:53 AM 79.0 °F - 57.0 °F 47% 30.12 in 10.0 mi ENE 24.2 mph 36.8 mph N/A   Scattered Clouds
12:53 PM 79.0 °F - 57.9 °F 48% 30.10 in 10.0 mi ENE 28.8 mph 35.7 mph N/A   Scattered Clouds
1:53 PM 81.0 °F 81.0 °F 57.0 °F 44% 30.07 in 10.0 mi ENE 25.3 mph 34.5 mph N/A   Scattered Clouds
2:53 PM 80.1 °F 80.1 °F 55.0 °F 42% 30.06 in 10.0 mi ENE 20.7 mph 38.0 mph N/A   Scattered Clouds
3:53 PM 78.1 °F - 55.9 °F 46% 30.06 in 10.0 mi ENE 13.8 mph 28.8 mph N/A   Scattered Clouds
4:53 PM 77.0 °F - 55.0 °F 47% 30.07 in 10.0 mi East 19.6 mph 24.2 mph N/A   Scattered Clouds
5:53 PM 75.0 °F - 55.0 °F 50% 30.08 in 10.0 mi East 13.8 mph 21.9 mph N/A   Scattered Clouds
6:53 PM 73.0 °F - 54.0 °F 51% 30.09 in 10.0 mi NNE 12.7 mph 19.6 mph N/A   Scattered Clouds
7:53 PM 73.0 °F - 55.9 °F 55% 30.12 in 10.0 mi NE 9.2 mph 28.8 mph N/A   Scattered Clouds
8:53 PM 73.0 °F - 55.9 °F 55% 30.13 in 10.0 mi ENE 26.5 mph 34.5 mph N/A   Partly Cloudy
9:53 PM 72.0 °F - 57.0 °F 59% 30.13 in 10.0 mi ENE 20.7 mph 32.2 mph N/A   Partly Cloudy
10:53 PM 73.0 °F - 57.0 °F 57% 30.13 in 10.0 mi ENE 17.3 mph 28.8 mph N/A   Scattered Clouds
11:53 PM 72.0 °F - 59.0 °F 64% 30.15 in 10.0 mi ENE 6.9 mph 17.3 mph 0.00 in Rain Light Rain